Tracking 19909 objects as of 21-Oct-2019
HD Live streaming from Space Station
objects crossing your sky now

SPARC-1

Track SPARC-1 now!
10-day predictions


NORAD ID: 44226
Int'l Code: 2019-026B
Perigee: 500.3 km
Apogee: 516.3 km
Inclination: 40.0 °
Period: 94.6 minutes
Semi major axis: 6879 km
RCS: Unknown
Launch date: May 5, 2019
Source: United States (US)
Launch site: Rocket Lab Launch Complex (RLLC)
aabbcc
Your satellite tracking list
Your tracking list is empty




NASA's NSSDC Master Catalog

Two Line Element Set (TLE):
1 44226U 19026B   19292.52705732  .00001152  00000-0  58006-4 0  9992
2 44226  40.0227 335.1735 0011645  51.5611 308.6229 15.21556019 25471
Source of the keplerian elements: AFSPC